{"data":{"norad_id":55341,"intl_designator":"2023-013L","name":"STARLINK-5670","alt_names":[],"object_type":"PAYLOAD","status":"ACTIVE","operator":null,"country":"US","launch_date":"2023-01-26","launch_site_code":"AFETR","launch_vehicle":null,"mission":null,"orbit_class":"UNKNOWN","rcs_meters":null,"size_class":null,"mass_kg":null,"dimensions":null,"purposes":["comms"],"wikipedia_slug":null,"has_3d_model":false,"image_url":null,"decayed_at":null,"tle_current":{"epoch":"2026-09-20T08:54:01.081440Z","epoch_age_seconds":107797,"freshness":"FRESH","line1":"1 55341U 23013L   26263.37084585 -.00000489  00000+0 -82373-5 0  9996","line2":"2 55341  43.0034 284.2732 0001100 294.5371  65.5366 15.27574463201441","mean_motion":15.27574463,"eccentricity":0.00011,"inclination_deg":43.0034,"raan_deg":284.2732,"arg_perigee_deg":294.5371,"mean_anomaly_deg":65.5366,"bstar":-8.2373e-6,"rev_number":20144,"period_min":94.267090402388,"perigee_km":482.31094356532,"apogee_km":483.820408154,"semimajor_km":6861.2026758597,"source":"CELESTRAK","updated_at":"2026-09-21T09:00:33.180154Z"}}}